This demonstration page uses our WeatherBlox Daily Observations layout. Learn more.

Left ArrowRight Arrow

38.80484, -77.04692

Hourly Observations for April 6, 2016

Temp ( °F °C ) Dew Point ( °F °C ) Humidity (%) Winds ( mph kmh ) Pressure ( in mb ) Visibility ( mi km ) Precip ( " mm )
12:52 am 00:52 Clear 38 3.3 21 -6.1 51 51 SSW 3 6 30.39 1029 10 16 0.00 0.00
1:52 am 01:52 Clear 36 2.2 21 -6.1 55 55 SW 5 7 30.38 1029 10 16 0.00 0.00
2:52 am 02:52 Clear 34 1.1 23 -5 64 64 SW 6 9 30.37 1029 10 16 0.00 0.00
3:52 am 03:52 Clear 36 2.2 20 -6.7 52 52 SSW 3 6 30.36 1028 10 16 0.00 0.00
4:52 am 04:52 Clear 34 1.1 21 -6.1 59 59 SW 5 7 30.37 1028 10 16 0.00 0.00
5:52 am 05:52 Mostly Clear 34 1.1 23 -5 64 64 SSW 5 7 30.37 1028 10 16 0.00 0.00
6:52 am 06:52 Partly Cloudy 33 0.6 21 -6.1 61 61 SW 7 11 30.37 1029 10 16 0.00 0.00
7:52 am 07:52 Mostly Cloudy 35 1.7 22 -5.6 59 59 SSW 8 13 30.39 1029 10 16 0.00 0.00
8:52 am 08:52 Mostly Cloudy 40 4.4 23 -5 51 51 SW 10 17 30.39 1029 10 16 0.00 0.00
9:52 am 09:52 Mostly Cloudy 46 7.8 24 -4.4 42 42 SSW 13 20 30.38 1029 10 16 0.00 0.00
10:52 am 10:52 Mostly Cloudy 47 8.3 23 -5 39 39 S 14 22 30.36 1028 10 16 0.00 0.00
11:52 am 11:52 Mostly Cloudy 49 9.4 25 -3.9 39 39 S 18 30 30.33 1027 10 16 0.00 0.00
12:52 pm 12:52 Mostly Cloudy 52 11.1 27 -2.8 38 38 S 20 31 30.28 1026 10 16 0.00 0.00
1:52 pm 13:52 Mostly Cloudy 52 11.1 27 -2.8 38 38 S 21 33 30.24 1024 10 16 0.00 0.00
2:52 pm 14:52 Mostly Cloudy 55 12.8 28 -2.2 35 35 S 17 28 30.18 1022 10 16 0.00 0.00
3:52 pm 15:52 Mostly Cloudy 55 12.8 27 -2.8 34 34 S 20 31 30.12 1020 10 16 0.00 0.00
4:52 pm 16:52 Mostly Cloudy 56 13.3 27 -2.8 33 33 S 16 26 30.08 1019 10 16 0.00 0.00
5:52 pm 17:52 Cloudy 55 12.8 28 -2.2 35 35 S 22 35 30.04 1017 10 16 0.00 0.00
6:52 pm 18:52 Cloudy 56 13.3 27 -2.8 33 33 S 16 26 30.01 1016 10 16 0.00 0.00
7:52 pm 19:52 Cloudy 55 12.8 30 -1.1 38 38 S 17 28 29.98 1015 10 16 0.00 0.00
8:52 pm 20:52 Cloudy 53 11.7 34 1.1 48 48 SSE 13 20 29.97 1015 10 16 0.00 0.00
9:52 pm 21:52 Cloudy 51 10.6 38 3.3 61 61 SSE 15 24 29.96 1014 10 16 0.00 0.00
10:52 pm 22:52 Cloudy 51 10.6 39 3.9 64 64 S 12 19 29.93 1014 10 16 0.00 0.00
11:52 pm 23:52 Cloudy 52 11.1 40 4.4 64 64 S 14 22 29.90 1013 10 16 0.00 0.00

Powered by AerisWeather